TimeEST,TemperatureF,Dew PointF,Humidity,Sea Level PressureIn,VisibilityMPH,Wind Direction,Wind SpeedMPH,Gust SpeedMPH,PrecipitationIn,Events,Conditions,WindDirDegrees,DateUTC
12:15 AM,35.6,32.0,87,30.29,10.0,NNE,8.1,-,N/A,Rain,Light Rain,20,2012-12-13 05:15:00
12:35 AM,35.6,32.0,87,30.30,10.0,North,8.1,-,N/A,Rain,Rain,10,2012-12-13 05:35:00
12:55 AM,35.6,32.0,87,30.30,10.0,North,9.2,-,N/A,Rain,Light Rain,10,2012-12-13 05:55:00
1:15 AM,35.6,32.0,87,30.31,10.0,North,10.4,-,N/A,Rain,Rain,10,2012-12-13 06:15:00
1:35 AM,35.6,32.0,87,30.30,10.0,NNE,9.2,17.3,N/A,Rain,Light Rain,30,2012-12-13 06:35:00
1:55 AM,33.8,32.0,93,30.29,10.0,NNE,11.5,16.1,0.02,Rain,Rain,20,2012-12-13 06:55:00
2:15 AM,33.8,32.0,93,30.28,10.0,NNE,10.4,-,0.01,Rain,Light Rain,30,2012-12-13 07:15:00
2:35 AM,33.8,32.0,93,30.31,10.0,North,10.4,-,0.01,Rain,Light Rain,10,2012-12-13 07:35:00
2:55 AM,33.8,32.0,93,30.33,10.0,North,8.1,-,0.02,Rain,Rain,10,2012-12-13 07:55:00
3:15 AM,33.8,32.0,93,30.32,10.0,North,9.2,-,0.01,Rain,Light Rain,10,2012-12-13 08:15:00
3:35 AM,33.8,32.0,93,30.32,10.0,NNE,9.2,-,0.02,Rain,Light Rain,20,2012-12-13 08:35:00
3:55 AM,33.8,32.0,93,30.30,10.0,North,12.7,-,0.02,Rain,Light Rain,10,2012-12-13 08:55:00
4:15 AM,33.8,32.0,93,30.30,10.0,NNE,11.5,-,N/A,Rain,Light Rain,20,2012-12-13 09:15:00
4:35 AM,33.8,32.0,93,30.28,10.0,NNE,11.5,-,N/A,,Light Drizzle,20,2012-12-13 09:35:00
4:55 AM,33.8,32.0,93,30.28,10.0,NNE,11.5,16.1,N/A,,Light Drizzle,20,2012-12-13 09:55:00
5:15 AM,33.8,32.0,93,30.30,10.0,North,10.4,-,N/A,,Light Drizzle,10,2012-12-13 10:15:00
5:35 AM,33.8,32.0,93,30.29,10.0,North,11.5,17.3,N/A,,Overcast,10,2012-12-13 10:35:00
5:55 AM,33.8,32.0,93,30.30,10.0,North,11.5,16.1,N/A,,Mostly Cloudy,10,2012-12-13 10:55:00
6:15 AM,33.8,30.2,87,30.31,10.0,North,8.1,-,N/A,,Scattered Clouds,10,2012-12-13 11:15:00
6:35 AM,32.0,30.2,93,30.31,10.0,North,11.5,-,N/A,,Mostly Cloudy,360,2012-12-13 11:35:00
6:55 AM,32.0,30.2,93,30.31,10.0,North,12.7,17.3,N/A,,Mostly Cloudy,10,2012-12-13 11:55:00
7:15 AM,32.0,30.2,93,30.32,10.0,North,10.4,-,N/A,,Scattered Clouds,10,2012-12-13 12:15:00
7:35 AM,32.0,28.4,87,30.33,10.0,North,12.7,-,N/A,,Mostly Cloudy,360,2012-12-13 12:35:00
7:55 AM,32.0,28.4,87,30.33,10.0,North,12.7,19.6,N/A,,Overcast,360,2012-12-13 12:55:00
8:15 AM,32.0,28.4,87,30.34,10.0,North,13.8,18.4,N/A,,Overcast,360,2012-12-13 13:15:00
8:35 AM,32.0,28.4,87,30.34,10.0,North,15.0,20.7,N/A,,Overcast,10,2012-12-13 13:35:00
8:55 AM,32.0,26.6,80,30.35,10.0,North,15.0,-,N/A,,Overcast,10,2012-12-13 13:55:00
9:15 AM,32.0,26.6,80,30.36,10.0,North,13.8,19.6,N/A,,Overcast,360,2012-12-13 14:15:00
9:35 AM,32.0,26.6,80,30.36,10.0,North,10.4,16.1,N/A,,Overcast,10,2012-12-13 14:35:00
9:55 AM,33.8,28.4,81,30.37,10.0,North,12.7,20.7,N/A,,Overcast,10,2012-12-13 14:55:00
10:35 AM,35.6,28.4,75,30.37,10.0,NNE,13.8,19.6,N/A,,Overcast,20,2012-12-13 15:35:00
10:55 AM,37.4,28.4,70,30.37,10.0,North,15.0,-,N/A,,Overcast,360,2012-12-13 15:55:00
11:15 AM,37.4,30.2,75,30.36,10.0,North,11.5,-,N/A,,Overcast,360,2012-12-13 16:15:00
11:35 AM,35.6,26.6,70,30.36,10.0,North,11.5,20.7,N/A,,Overcast,360,2012-12-13 16:35:00
11:55 AM,37.4,28.4,70,30.36,10.0,North,10.4,16.1,N/A,,Overcast,10,2012-12-13 16:55:00
12:15 PM,37.4,28.4,70,30.35,10.0,North,12.7,-,N/A,,Mostly Cloudy,360,2012-12-13 17:15:00
12:35 PM,39.2,28.4,65,30.35,10.0,North,13.8,18.4,N/A,,Clear,360,2012-12-13 17:35:00
12:55 PM,41.0,30.2,65,30.34,10.0,North,9.2,-,N/A,,Clear,360,2012-12-13 17:55:00
1:15 PM,41.0,30.2,65,30.33,10.0,North,11.5,16.1,N/A,,Clear,360,2012-12-13 18:15:00
1:35 PM,41.0,28.4,61,30.33,10.0,NNE,8.1,-,N/A,,Clear,20,2012-12-13 18:35:00
1:55 PM,41.0,30.2,65,30.32,10.0,NNE,12.7,16.1,N/A,,Scattered Clouds,30,2012-12-13 18:55:00
2:15 PM,41.0,30.2,65,30.32,10.0,NE,5.8,-,N/A,,Scattered Clouds,50,2012-12-13 19:15:00
2:35 PM,41.0,30.2,65,30.32,10.0,NNE,8.1,-,N/A,,Scattered Clouds,30,2012-12-13 19:35:00
2:55 PM,41.0,28.4,61,30.32,10.0,NE,6.9,-,N/A,,Mostly Cloudy,50,2012-12-13 19:55:00
3:15 PM,41.0,28.4,61,30.33,10.0,NNE,9.2,17.3,N/A,,Mostly Cloudy,30,2012-12-13 20:15:00
3:35 PM,41.0,28.4,61,30.33,10.0,North,11.5,-,N/A,,Mostly Cloudy,10,2012-12-13 20:35:00
3:55 PM,41.0,28.4,61,30.33,10.0,NE,6.9,-,N/A,,Mostly Cloudy,50,2012-12-13 20:55:00
4:15 PM,39.2,28.4,65,30.33,10.0,NNE,9.2,-,N/A,,Scattered Clouds,30,2012-12-13 21:15:00
4:35 PM,37.4,28.4,70,30.33,10.0,NNE,5.8,-,N/A,,Scattered Clouds,30,2012-12-13 21:35:00
4:55 PM,37.4,28.4,70,30.32,10.0,NNE,5.8,-,N/A,,Clear,30,2012-12-13 21:55:00
5:15 PM,33.8,26.6,75,30.32,10.0,NNE,4.6,-,N/A,,Clear,30,2012-12-13 22:15:00
5:35 PM,32.0,23.0,69,30.32,10.0,NNE,4.6,-,N/A,,Clear,20,2012-12-13 22:35:00
6:15 PM,32.0,28.4,87,30.33,10.0,North,4.6,-,N/A,,Clear,10,2012-12-13 23:15:00
6:35 PM,32.0,26.6,80,30.34,10.0,North,5.8,-,N/A,,Clear,10,2012-12-13 23:35:00
7:55 PM,30.2,26.6,86,30.35,10.0,NNE,3.5,-,N/A,,Clear,20,2012-12-14 00:55:00
8:15 PM,30.2,26.6,86,30.35,10.0,North,3.5,-,N/A,,Clear,10,2012-12-14 01:15:00
8:35 PM,30.2,26.6,86,30.35,10.0,North,3.5,-,N/A,,Clear,10,2012-12-14 01:35:00
8:55 PM,28.4,26.6,93,30.35,10.0,North,3.5,-,N/A,,Clear,10,2012-12-14 01:55:00
9:15 PM,8.6,5.0,85,30.35,10.0,North,4.6,-,N/A,,Clear,10,2012-12-14 02:15:00
9:35 PM,8.6,6.8,92,30.36,10.0,North,4.6,-,N/A,,Clear,360,2012-12-14 02:35:00
9:55 PM,24.8,21.2,86,30.36,10.0,North,3.5,-,N/A,,Clear,360,2012-12-14 02:55:00
10:15 PM,33.8,32.0,93,30.36,10.0,North,3.5,-,N/A,,Clear,360,2012-12-14 03:15:00
10:35 PM,33.8,32.0,93,30.36,10.0,North,3.5,-,N/A,,Clear,350,2012-12-14 03:35:00
11:15 PM,33.8,32.0,93,30.35,10.0,Calm,Calm,-,N/A,,Clear,0,2012-12-14 04:15:00
11:35 PM,33.8,32.0,93,30.35,10.0,Calm,Calm,-,N/A,,Clear,0,2012-12-14 04:35:00
11:55 PM,33.8,32.0,93,30.35,10.0,Calm,Calm,-,N/A,,Clear,0,2012-12-14 04:55:00